User: anonymous
Location: Unspecified
(0.0000°N, 0.0000°E)
Time: 04:53:45
(UTC+00:00)
Language:

deb r/b Ablestar - Orbit

View from above orbital plane
View from above orbital plane
View from above satellite
View from above satellite

Ground track
Ground track

The orbit data is extracted from the following two-line orbital elements,

1 00335U 61015DM  14258.06691958  .00000634  00000-0  36449-3 0  2881
2 00335 066.8421 277.5459 0034402 106.7279 285.2323 14.15375130719028
Epoch (UTC): 15 September 2014 01:36:21
Eccentricity: 0.0034402
inclination: 66.8421°
perigee height: 816 km
apogee height: 866 km
right ascension of ascending node: 277.5459°
argument of perigee: 106.7279°
revolutions per day: 14.15375130
mean anomaly at epoch: 285.2323°
orbit number at epoch: 71902

The dashed part of the orbit path shows where the satellite is in the earth's shadow,  

DLR